TimeEST,TemperatureF,Dew PointF,Humidity,Sea Level PressureIn,VisibilityMPH,Wind Direction,Wind SpeedMPH,Gust SpeedMPH,PrecipitationIn,Events,Conditions,WindDirDegrees,DateUTC
12:54 AM,48.0,27.0,44,29.54,10.0,SW,27.6,35.7,N/A,,Overcast,220,2013-01-20 05:54:00
1:54 AM,46.9,28.0,48,29.51,10.0,SW,26.5,38.0,N/A,,Overcast,220,2013-01-20 06:54:00
2:54 AM,45.0,30.0,56,29.50,10.0,SW,21.9,36.8,N/A,,Overcast,230,2013-01-20 07:54:00
3:54 AM,45.0,33.1,63,29.49,10.0,SW,35.7,55.2,N/A,,Overcast,230,2013-01-20 08:54:00
4:54 AM,43.0,32.0,65,29.48,10.0,WSW,35.7,61.0,N/A,,Overcast,240,2013-01-20 09:54:00
5:54 AM,39.9,30.0,68,29.53,10.0,WSW,31.1,48.3,N/A,,Mostly Cloudy,250,2013-01-20 10:54:00
6:54 AM,37.4,21.2,52,29.58,10.0,West,27.6,48.3,N/A,Snow,Light Snow,270,2013-01-20 11:54:00
7:54 AM,30.9,18.0,59,29.71,10.0,West,29.9,40.3,0.00,Snow,Light Snow,280,2013-01-20 12:54:00
8:54 AM,28.9,16.0,58,29.79,9.0,West,27.6,39.1,0.00,Snow,Light Snow,270,2013-01-20 13:54:00
9:54 AM,27.0,10.9,51,29.85,10.0,West,27.6,42.6,0.00,,Mostly Cloudy,260,2013-01-20 14:54:00
10:54 AM,26.1,8.1,47,29.91,10.0,West,25.3,39.1,N/A,,Mostly Cloudy,260,2013-01-20 15:54:00
11:54 AM,25.0,8.1,49,29.91,10.0,West,20.7,26.5,0.00,,Mostly Cloudy,260,2013-01-20 16:54:00
12:54 PM,25.0,8.1,49,29.94,10.0,West,25.3,38.0,N/A,,Mostly Cloudy,260,2013-01-20 17:54:00
1:54 PM,24.1,10.0,55,29.96,9.0,WSW,19.6,33.4,0.00,Snow,Light Snow,250,2013-01-20 18:54:00
2:54 PM,24.1,10.9,57,29.98,10.0,WSW,19.6,25.3,0.00,,Overcast,250,2013-01-20 19:54:00
3:54 PM,24.1,12.0,60,30.00,9.0,WNW,15.0,26.5,0.00,,Overcast,290,2013-01-20 20:54:00
4:22 PM,23.0,12.2,63,30.00,2.0,West,13.8,-,0.00,Snow,Light Snow,280,2013-01-20 21:22:00
4:34 PM,21.2,15.8,80,30.00,4.0,West,17.3,26.5,0.00,Snow,Light Snow,270,2013-01-20 21:34:00
4:54 PM,21.9,14.0,72,30.03,4.0,West,16.1,26.5,0.00,Snow,Light Snow,260,2013-01-20 21:54:00
5:54 PM,21.9,10.9,63,30.06,7.0,WNW,15.0,21.9,0.00,Snow,Light Snow,290,2013-01-20 22:54:00
5:59 PM,21.2,14.0,74,30.03,2.0,WNW,16.1,-,0.00,Snow,Light Snow,290,2013-01-20 22:59:00
6:09 PM,21.2,15.8,80,30.04,4.0,West,11.5,-,0.00,Snow,Light Snow,270,2013-01-20 23:09:00
6:54 PM,21.0,14.0,74,30.08,7.0,West,11.5,20.7,0.00,Snow,Light Snow,260,2013-01-20 23:54:00
7:54 PM,19.9,12.0,71,30.10,7.0,West,11.5,20.7,0.00,Snow,Light Snow,260,2013-01-21 00:54:00
8:54 PM,19.9,9.0,62,30.10,9.0,WNW,12.7,-,0.00,,Mostly Cloudy,290,2013-01-21 01:54:00
9:54 PM,19.9,9.0,62,30.11,10.0,West,16.1,-,N/A,,Mostly Cloudy,270,2013-01-21 02:54:00
10:54 PM,19.0,8.1,62,30.11,10.0,West,13.8,20.7,N/A,,Scattered Clouds,270,2013-01-21 03:54:00
11:54 PM,18.0,8.1,65,30.10,10.0,West,12.7,-,N/A,,Scattered Clouds,260,2013-01-21 04:54:00